Location: Unspecified
(0.0000°N, 0.0000°E)
Time: 18:11:15
(UTC+00:00)

Transit 2A - Pass Details

Date: 30 May 2019
Orbit: 596 x 962 km, 66.7° (Epoch: 18 August)

Event Time Altitude Azimuth Distance (km) Brightness Sun altitude
Rises 02:58:49 0° 161° (SSE) 3,283 - -40.8°
Reaches altitude 10° 03:02:52 10° 131° (SE) 2,443 - -39.9°
Exits shadow 03:04:06 12° 118° (ESE) 2,345 8.8 -39.6°
Maximum altitude 03:05:01 12° 108° (ESE) 2,335 8.9 -39.4°
Drops below altitude 10° 03:07:13 10° 86° (E) 2,529 9.3 -38.9°
Sets 03:11:34 0° 57° (ENE) 3,540 10.4 -38.0°
